| time (UTC) | temp F | wind direction | speed MPH | gust MPH | rain 1hr in | rain 24hr in | rain mn in | humidity % | barometer mb |
| 20260505224500 | 78 | 234 | 4.0 | 17.0 | 0.00 | 0.00 | 0.00 | 25 | 1008.7 |
| 20260505221502 | 79 | 205 | 2.0 | 14.0 | 0.00 | 0.00 | 0.00 | 25 | 1008.6 |
| 20260505220002 | 79 | 215 | 3.0 | 10.0 | 0.00 | 0.00 | 0.00 | 27 | 1009.0 |
| 20260505214459 | 77 | 237 | 3.0 | 13.0 | 0.00 | 0.00 | 0.00 | 29 | 1009.2 |
| 20260505211500 | 78 | 219 | 5.0 | 17.0 | 0.00 | 0.00 | 0.00 | 25 | 1009.6 |
| 20260505210002 | 78 | 282 | 3.0 | 15.0 | 0.00 | 0.00 | 0.00 | 28 | 1009.7 |
| 20260505203000 | 78 | 233 | 3.0 | 10.0 | 0.00 | 0.00 | 0.00 | 27 | 1009.9 |
| 20260505200003 | 79 | 271 | 2.0 | 13.0 | 0.00 | 0.00 | 0.00 | 27 | 1009.9 |
| 20260505193000 | 78 | 257 | 2.0 | 13.0 | 0.00 | 0.00 | 0.00 | 28 | 1009.8 |
| 20260505191500 | 79 | 207 | 0.0 | 7.0 | 0.00 | 0.00 | 0.00 | 30 | 1010.1 |
| 20260505190003 | 80 | 288 | 0.0 | 3.0 | 0.00 | 0.00 | 0.00 | 28 | 1009.9 |
| 20260505184500 | 79 | 239 | 1.0 | 5.0 | 0.00 | 0.00 | 0.00 | 29 | 1010.3 |
| 20260505183000 | 78 | 214 | 1.0 | 9.0 | 0.00 | 0.00 | 0.00 | 30 | 1010.7 |
| 20260505181502 | 77 | 75 | 3.0 | 10.0 | 0.00 | 0.00 | 0.00 | 31 | 1010.9 |
| 20260505175959 | 75 | 188 | 2.0 | 9.0 | 0.00 | 0.00 | 0.00 | 36 | 1011.0 |
| 20260505172959 | 74 | 201 | 2.0 | 8.0 | 0.00 | 0.00 | 0.00 | 35 | 1011.0 |
| 20260505171500 | 73 | 184 | 2.0 | 7.0 | 0.00 | 0.00 | 0.00 | 35 | 1010.8 |
| 20260505170002 | 73 | 134 | 1.0 | 5.0 | 0.00 | 0.00 | 0.00 | 36 | 1011.1 |
| 20260505164501 | 73 | 139 | 0.0 | 3.0 | 0.00 | 0.00 | 0.00 | 37 | 1011.2 |
| 20260505163002 | 73 | 148 | 0.0 | 4.0 | 0.00 | 0.00 | 0.00 | 35 | 1011.3 |
| 20260505161508 | 73 | 224 | 1.0 | 5.0 | 0.00 | 0.00 | 0.00 | 37 | 1011.2 |
| 20260505153000 | 70 | 221 | 0.0 | 1.0 | 0.00 | 0.00 | 0.00 | 40 | 1011.0 |
| 20260505124459 | 65 | 13 | 0.0 | 3.0 | 0.00 | 0.00 | 0.00 | 43 | 1010.0 |
| 20260505121500 | 66 | 30 | 0.0 | 1.0 | 0.00 | 0.00 | 0.00 | 41 | 1009.8 |
| 20260505120003 | 66 | 307 | 0.0 | 1.0 | 0.00 | 0.00 | 0.00 | 39 | 1009.7 |
| 20260505113000 | 68 | 298 | 1.0 | 6.0 | 0.00 | 0.00 | 0.00 | 37 | 1009.2 |
| 20260505111459 | 68 | 308 | 3.0 | 35.0 | 0.00 | 0.00 | 0.00 | 36 | 1009.3 |
| 20260505101459 | 69 | 296 | 1.0 | 7.0 | 0.00 | 0.00 | 0.00 | 35 | 1009.4 |
| 20260505100002 | 68 | 311 | 1.0 | 5.0 | 0.00 | 0.00 | 0.00 | 36 | 1009.2 |
| 20260505094459 | 67 | 271 | 0.0 | 2.0 | 0.00 | 0.00 | 0.00 | 37 | 1009.2 |
| 20260505093001 | 66 | 122 | 0.0 | 4.0 | 0.00 | 0.00 | 0.00 | 38 | 1009.2 |
| 20260505091459 | 65 | 256 | 0.0 | 2.0 | 0.00 | 0.00 | 0.00 | 40 | 1009.3 |
| 20260505090001 | 64 | 256 | 0.0 | 0.0 | 0.00 | 0.00 | 0.00 | 40 | 1009.4 |
| 20260505084501 | 64 | 218 | 0.0 | 0.0 | 0.00 | 0.00 | 0.00 | 39 | 1009.6 |
| 20260505083002 | 64 | 331 | 0.0 | 0.0 | 0.00 | 0.00 | 0.00 | 38 | 1009.4 |
| 20260505081459 | 64 | 332 | 0.0 | 0.0 | 0.00 | 0.00 | 0.00 | 39 | 1009.2 |
| 20260505080002 | 65 | 318 | 0.0 | 0.0 | 0.00 | 0.00 | 0.00 | 38 | 1009.4 |
| 20260505074501 | 65 | 318 | 0.0 | 0.0 | 0.00 | 0.00 | 0.00 | 36 | 1009.4 |
| 20260505073000 | 66 | 70 | 0.0 | 0.0 | 0.00 | 0.00 | 0.00 | 36 | 1009.3 |
| 20260505070002 | 67 | 312 | 0.0 | 0.0 | 0.00 | 0.00 | 0.00 | 33 | 1009.2 |
| 20260505064500 | 69 | 312 | 0.0 | 0.0 | 0.00 | 0.00 | 0.00 | 30 | 1009.2 |
| 20260505063001 | 71 | 314 | 0.0 | 1.0 | 0.00 | 0.00 | 0.00 | 28 | 1009.1 |
| 20260505061500 | 72 | 252 | 0.0 | 1.0 | 0.00 | 0.00 | 0.00 | 26 | 1009.1 |
| 20260505053002 | 74 | 212 | 1.0 | 10.0 | 0.00 | 0.00 | 0.00 | 24 | 1009.3 |
| 20260505051500 | 74 | 259 | 1.0 | 11.0 | 0.00 | 0.00 | 0.00 | 24 | 1009.6 |
| 20260505041501 | 73 | 221 | 0.0 | 5.0 | 0.00 | 0.00 | 0.00 | 25 | 1009.7 |
| 20260505040002 | 74 | 259 | 1.0 | 7.0 | 0.00 | 0.00 | 0.00 | 25 | 1009.6 |
| 20260505034500 | 73 | 232 | 1.0 | 9.0 | 0.00 | 0.00 | 0.00 | 25 | 1009.5 |
| 20260505033001 | 73 | 262 | 1.0 | 11.0 | 0.00 | 0.00 | 0.00 | 26 | 1009.2 |
| 20260505031501 | 72 | 252 | 0.0 | 6.0 | 0.00 | 0.00 | 0.00 | 28 | 1008.9 |
| 20260505030002 | 73 | 278 | 0.0 | 5.0 | 0.00 | 0.00 | 0.00 | 28 | 1008.8 |
| 20260505023002 | 75 | 259 | 0.0 | 6.0 | 0.00 | 0.00 | 0.00 | 24 | 1008.6 |
| 20260505021500 | 76 | 212 | 0.0 | 5.0 | 0.00 | 0.00 | 0.00 | 23 | 1008.8 |
| 20260505014500 | 77 | 236 | 0.0 | 1.0 | 0.00 | 0.00 | 0.00 | 22 | 1008.8 |
| 20260505013001 | 78 | 239 | 0.0 | 4.0 | 0.00 | 0.00 | 0.00 | 20 | 1008.6 |
| 20260505011501 | 78 | 255 | 0.0 | 3.0 | 0.00 | 0.00 | 0.00 | 21 | 1008.6 |
| 20260505004501 | 80 | 226 | 0.0 | 7.0 | 0.00 | 0.00 | 0.00 | 19 | 1008.8 |
| 20260505003000 | 80 | 272 | 0.0 | 5.0 | 0.00 | 0.00 | 0.00 | 19 | 1008.8 |
| 20260505001501 | 80 | 210 | 0.0 | 0.0 | 0.00 | 0.00 | 0.00 | 21 | 1009.1 |
| 20260504234459 | 82 | 29 | 0.0 | 2.0 | 0.00 | 0.00 | 0.00 | 18 | 1009.0 |
| 20260504232959 | 82 | 38 | 0.0 | 1.0 | 0.00 | 0.00 | 0.00 | 18 | 1009.2 |
| 20260504231500 | 82 | 26 | 0.0 | 5.0 | 0.00 | 0.00 | 0.00 | 17 | 1009.1 |